Time,TemperatureF,DewpointF,PressureIn,WindDirection,WindDirectionDegrees,WindSpeedMPH,WindSpeedGustMPH,Humidity,HourlyPrecipIn,Conditions,Clouds,dailyrainin,SoftwareType,DateUTC
2013-01-31 00:05:00,14.9,10.7,29.48,ESE,114,2.0,2.0,83,0.00,,,0.00,Wunderground v.1.15,2013-01-31 09:05:00,
2013-01-31 00:10:00,15.2,11.0,29.48,SE,124,2.0,4.0,83,0.00,,,0.00,Wunderground v.1.15,2013-01-31 09:10:00,
2013-01-31 00:20:00,15.4,11.2,29.48,SE,135,4.0,10.0,83,0.00,,,0.00,Wunderground v.1.15,2013-01-31 09:20:00,
2013-01-31 00:25:00,15.6,11.4,29.48,ESE,115,5.0,10.0,83,0.00,,,0.00,Wunderground v.1.15,2013-01-31 09:25:00,
2013-01-31 00:35:00,15.6,11.4,29.49,ESE,114,3.0,8.0,83,0.00,,,0.00,Wunderground v.1.15,2013-01-31 09:35:00,
2013-01-31 00:40:00,15.6,11.1,29.49,SE,129,5.0,6.0,82,0.00,,,0.00,Wunderground v.1.15,2013-01-31 09:40:00,
2013-01-31 00:45:00,15.4,11.2,29.49,SE,124,6.0,6.0,83,0.00,,,0.00,Wunderground v.1.15,2013-01-31 09:45:00,
2013-01-31 00:55:00,15.1,10.9,29.49,SE,129,6.0,6.0,83,0.00,,,0.00,Wunderground v.1.15,2013-01-31 09:55:00,
2013-01-31 01:00:00,15.4,11.2,29.50,ESE,119,6.0,7.0,83,0.00,,,0.00,Wunderground v.1.15,2013-01-31 10:00:00,
2013-01-31 01:10:00,15.6,11.4,29.50,SE,136,4.0,4.0,83,0.00,,,0.00,Wunderground v.1.15,2013-01-31 10:10:00,
2013-01-31 01:15:00,15.6,11.6,29.50,SE,125,3.0,4.0,84,0.00,,,0.00,Wunderground v.1.15,2013-01-31 10:15:00,
2013-01-31 01:25:00,15.7,12.0,29.50,SE,125,0.0,1.0,85,0.00,,,0.00,Wunderground v.1.15,2013-01-31 10:25:00,
2013-01-31 01:30:00,16.2,12.5,29.51,SE,125,0.0,0.0,85,0.00,,,0.00,Wunderground v.1.15,2013-01-31 10:30:00,
2013-01-31 01:40:00,16.2,12.7,29.51,SE,126,1.0,1.0,86,0.00,,,0.00,Wunderground v.1.15,2013-01-31 10:40:00,
2013-01-31 01:45:00,16.2,12.7,29.51,SE,126,0.0,1.0,86,0.00,,,0.00,Wunderground v.1.15,2013-01-31 10:45:00,
2013-01-31 01:55:00,16.7,13.5,29.51,SE,126,1.0,1.0,87,0.00,,,0.00,Wunderground v.1.15,2013-01-31 10:55:00,
2013-01-31 02:05:00,16.5,13.0,29.51,SE,126,0.0,0.0,86,0.00,,,0.00,Wunderground v.1.15,2013-01-31 11:05:00,
2013-01-31 02:10:00,16.2,12.7,29.51,SE,126,0.0,0.0,86,0.00,,,0.00,Wunderground v.1.15,2013-01-31 11:10:00,
2013-01-31 02:20:00,16.7,13.5,29.52,SE,129,2.0,2.0,87,0.00,,,0.00,Wunderground v.1.15,2013-01-31 11:20:00,
2013-01-31 02:25:00,16.9,13.4,29.52,SE,128,1.0,2.0,86,0.00,,,0.00,Wunderground v.1.15,2013-01-31 11:25:00,
2013-01-31 02:35:00,17.0,13.3,29.53,SE,138,3.0,5.0,85,0.00,,,0.00,Wunderground v.1.15,2013-01-31 11:35:00,
2013-01-31 02:40:00,17.0,13.3,29.53,SE,136,2.0,2.0,85,0.00,,,0.00,Wunderground v.1.15,2013-01-31 11:40:00,
2013-01-31 02:45:00,16.9,13.2,29.53,SE,139,3.0,3.0,85,0.00,,,0.00,Wunderground v.1.15,2013-01-31 11:45:00,
2013-01-31 02:55:00,16.7,13.0,29.53,SE,142,3.0,4.0,85,0.00,,,0.00,Wunderground v.1.15,2013-01-31 11:55:00,
2013-01-31 03:00:00,16.7,13.2,29.53,SE,138,3.0,4.0,86,0.00,,,0.00,Wunderground v.1.15,2013-01-31 12:00:00,
2013-01-31 03:05:00,16.9,13.4,29.53,SE,140,4.0,4.0,86,0.00,,,0.00,Wunderground v.1.15,2013-01-31 12:05:00,
2013-01-31 03:15:00,16.7,13.2,29.53,SE,146,2.0,3.0,86,0.00,,,0.00,Wunderground v.1.15,2013-01-31 12:15:00,
2013-01-31 03:25:00,17.0,13.5,29.53,SSE,156,4.0,5.0,86,0.00,,,0.00,Wunderground v.1.15,2013-01-31 12:25:00,
2013-01-31 03:35:00,17.0,13.5,29.54,SSE,156,3.0,5.0,86,0.00,,,0.00,Wunderground v.1.15,2013-01-31 12:35:00,
2013-01-31 03:45:00,16.7,13.2,29.54,SSE,152,3.0,6.0,86,0.00,,,0.00,Wunderground v.1.15,2013-01-31 12:45:00,
2013-01-31 03:50:00,17.0,13.5,29.54,SSE,149,6.0,8.0,86,0.00,,,0.00,Wunderground v.1.15,2013-01-31 12:50:00,
2013-01-31 04:00:00,17.3,13.6,29.54,SSE,156,12.0,12.0,85,0.00,,,0.00,Wunderground v.1.15,2013-01-31 13:00:00,
2013-01-31 04:05:00,17.3,13.3,29.54,SSE,150,10.0,12.0,84,0.00,,,0.00,Wunderground v.1.15,2013-01-31 13:05:00,
2013-01-31 04:15:00,17.3,13.3,29.55,SSE,148,9.0,10.0,84,0.00,,,0.00,Wunderground v.1.15,2013-01-31 13:15:00,
2013-01-31 04:20:00,17.0,13.0,29.55,SE,132,8.0,10.0,84,0.00,,,0.00,Wunderground v.1.15,2013-01-31 13:20:00,
2013-01-31 04:30:00,16.9,13.2,29.55,SE,138,7.0,7.0,85,0.00,,,0.00,Wunderground v.1.15,2013-01-31 13:30:00,
2013-01-31 04:40:00,16.9,12.9,29.55,SE,124,7.0,7.0,84,0.00,,,0.00,Wunderground v.1.15,2013-01-31 13:40:00,
2013-01-31 04:50:00,17.0,13.3,29.55,ESE,119,5.0,5.0,85,0.00,,,0.00,Wunderground v.1.15,2013-01-31 13:50:00,
2013-01-31 04:55:00,16.9,12.9,29.55,SE,129,4.0,5.0,84,0.00,,,0.00,Wunderground v.1.15,2013-01-31 13:55:00,
2013-01-31 05:00:00,16.9,12.9,29.55,SE,131,3.0,3.0,84,0.00,,,0.00,Wunderground v.1.15,2013-01-31 14:00:00,
2013-01-31 05:10:00,16.9,13.2,29.55,SSE,156,3.0,3.0,85,0.00,,,0.00,Wunderground v.1.15,2013-01-31 14:10:00,
2013-01-31 05:15:00,16.9,13.2,29.56,SE,138,2.0,3.0,85,0.00,,,0.00,Wunderground v.1.15,2013-01-31 14:15:00,
2013-01-31 05:20:00,16.9,13.2,29.56,SE,138,0.0,0.0,85,0.00,,,0.00,Wunderground v.1.15,2013-01-31 14:20:00,
2013-01-31 05:30:00,16.9,13.2,29.56,SE,132,0.0,0.0,85,0.00,,,0.00,Wunderground v.1.15,2013-01-31 14:30:00,
2013-01-31 05:35:00,16.9,13.4,29.56,SE,132,0.0,0.0,86,0.00,,,0.00,Wunderground v.1.15,2013-01-31 14:35:00,
2013-01-31 05:45:00,16.9,13.4,29.56,SE,132,0.0,0.0,86,0.00,,,0.00,Wunderground v.1.15,2013-01-31 14:45:00,
2013-01-31 05:55:00,16.9,13.4,29.56,SE,132,0.0,2.0,86,0.00,,,0.00,Wunderground v.1.15,2013-01-31 14:55:00,
2013-01-31 06:00:00,17.0,13.3,29.57,SE,132,1.0,1.0,85,0.00,,,0.00,Wunderground v.1.15,2013-01-31 15:00:00,
2013-01-31 06:10:00,16.9,13.2,29.57,SSW,198,0.0,0.0,85,0.00,,,0.00,Wunderground v.1.15,2013-01-31 15:10:00,
2013-01-31 06:20:00,16.9,13.4,29.57,NW,310,1.0,1.0,86,0.00,,,0.00,Wunderground v.1.15,2013-01-31 15:20:00,
2013-01-31 06:30:00,16.9,13.7,29.57,NW,310,1.0,1.0,87,0.00,,,0.00,Wunderground v.1.15,2013-01-31 15:30:00,
2013-01-31 06:35:00,16.9,13.7,29.57,NW,310,1.0,1.0,87,0.00,,,0.00,Wunderground v.1.15,2013-01-31 15:35:00,
2013-01-31 06:40:00,17.0,13.8,29.57,NW,310,1.0,1.0,87,0.00,,,0.00,Wunderground v.1.15,2013-01-31 15:40:00,
2013-01-31 06:50:00,16.9,13.7,29.57,NW,310,1.0,1.0,87,0.00,,,0.00,Wunderground v.1.15,2013-01-31 15:50:00,
2013-01-31 06:55:00,16.9,13.7,29.57,NW,310,1.0,1.0,87,0.00,,,0.00,Wunderground v.1.15,2013-01-31 15:55:00,
2013-01-31 07:00:00,16.9,13.7,29.57,NW,310,0.0,0.0,87,0.00,,,0.00,Wunderground v.1.15,2013-01-31 16:00:00,
2013-01-31 07:10:00,16.5,13.0,29.57,North,349,0.0,1.0,86,0.00,,,0.00,Wunderground v.1.15,2013-01-31 16:10:00,
2013-01-31 07:20:00,15.6,12.2,29.58,NNE,18,3.0,3.0,86,0.00,,,0.00,Wunderground v.1.15,2013-01-31 16:20:00,
2013-01-31 07:25:00,15.1,11.9,29.58,NNE,19,3.0,3.0,87,0.00,,,0.00,Wunderground v.1.15,2013-01-31 16:25:00,
2013-01-31 07:35:00,14.8,11.6,29.58,NNE,25,4.0,6.0,87,0.00,,,0.00,Wunderground v.1.15,2013-01-31 16:35:00,
2013-01-31 07:45:00,14.6,11.4,29.58,NNE,25,2.0,6.0,87,0.00,,,0.00,Wunderground v.1.15,2013-01-31 16:45:00,
2013-01-31 07:50:00,14.6,11.4,29.58,NNE,25,3.0,3.0,87,0.00,,,0.00,Wunderground v.1.15,2013-01-31 16:50:00,
2013-01-31 08:00:00,14.4,11.2,29.58,NNE,28,4.0,5.0,87,0.00,,,0.00,Wunderground v.1.15,2013-01-31 17:00:00,
2013-01-31 08:10:00,14.4,11.2,29.58,NE,39,5.0,5.0,87,0.00,,,0.00,Wunderground v.1.15,2013-01-31 17:10:00,
2013-01-31 08:15:00,14.3,11.1,29.58,NNE,20,6.0,11.0,87,0.00,,,0.00,Wunderground v.1.15,2013-01-31 17:15:00,
2013-01-31 08:25:00,14.3,11.1,29.58,NNE,32,5.0,6.0,87,0.00,,,0.00,Wunderground v.1.15,2013-01-31 17:25:00,
2013-01-31 08:35:00,14.3,11.1,29.58,NE,35,3.0,5.0,87,0.00,,,0.00,Wunderground v.1.15,2013-01-31 17:35:00,
2013-01-31 08:45:00,14.3,11.1,29.59,NE,35,3.0,3.0,87,0.00,,,0.00,Wunderground v.1.15,2013-01-31 17:45:00,
2013-01-31 08:55:00,14.3,10.9,29.59,NE,42,4.0,5.0,86,0.00,,,0.00,Wunderground v.1.15,2013-01-31 17:55:00,
2013-01-31 09:00:00,14.3,10.9,29.59,NE,56,5.0,5.0,86,0.00,,,0.00,Wunderground v.1.15,2013-01-31 18:00:00,
2013-01-31 09:10:00,14.1,10.7,29.59,NE,47,2.0,3.0,86,0.00,,,0.00,Wunderground v.1.15,2013-01-31 18:10:00,
2013-01-31 09:15:00,14.1,10.7,29.60,NE,47,2.0,3.0,86,0.00,,,0.00,Wunderground v.1.15,2013-01-31 18:15:00,
2013-01-31 09:25:00,14.1,10.7,29.60,NE,46,2.0,3.0,86,0.00,,,0.00,Wunderground v.1.15,2013-01-31 18:25:00,
2013-01-31 09:30:00,14.1,10.9,29.61,NE,46,2.0,2.0,87,0.00,,,0.00,Wunderground v.1.15,2013-01-31 18:30:00,
2013-01-31 09:40:00,14.1,10.9,29.61,NE,46,0.0,0.0,87,0.00,,,0.00,Wunderground v.1.15,2013-01-31 18:40:00,
2013-01-31 09:50:00,14.1,10.9,29.61,NE,46,1.0,1.0,87,0.00,,,0.00,Wunderground v.1.15,2013-01-31 18:50:00,
2013-01-31 09:55:00,14.1,10.9,29.61,NE,46,1.0,1.0,87,0.00,,,0.00,Wunderground v.1.15,2013-01-31 18:55:00,
2013-01-31 10:05:00,14.1,10.9,29.62,NE,46,0.0,1.0,87,0.00,,,0.00,Wunderground v.1.15,2013-01-31 19:05:00,
2013-01-31 10:10:00,14.1,10.9,29.62,NE,46,0.0,0.0,87,0.00,,,0.00,Wunderground v.1.15,2013-01-31 19:10:00,
2013-01-31 10:20:00,14.1,10.9,29.62,NE,46,1.0,1.0,87,0.00,,,0.00,Wunderground v.1.15,2013-01-31 19:20:00,
2013-01-31 10:25:00,14.1,10.9,29.62,NE,46,0.0,1.0,87,0.00,,,0.00,Wunderground v.1.15,2013-01-31 19:25:00,
2013-01-31 10:35:00,14.4,11.5,29.63,NE,46,0.0,0.0,88,0.00,,,0.00,Wunderground v.1.15,2013-01-31 19:35:00,
2013-01-31 10:40:00,14.8,11.9,29.63,NE,49,2.0,2.0,88,0.00,,,0.00,Wunderground v.1.15,2013-01-31 19:40:00,
2013-01-31 10:50:00,14.8,11.9,29.63,NE,49,2.0,2.0,88,0.00,,,0.00,Wunderground v.1.15,2013-01-31 19:50:00,
2013-01-31 10:55:00,15.2,12.5,29.63,NE,44,1.0,2.0,89,0.00,,,0.00,Wunderground v.1.15,2013-01-31 19:55:00,
2013-01-31 11:05:00,17.5,15.3,29.64,WNW,287,7.0,13.0,91,0.00,,,0.00,Wunderground v.1.15,2013-01-31 20:05:00,
2013-01-31 11:15:00,18.6,15.9,29.64,West,262,11.0,13.0,89,0.00,,,0.00,Wunderground v.1.15,2013-01-31 20:15:00,
2013-01-31 11:20:00,18.6,15.6,29.64,WNW,287,11.0,12.0,88,0.00,,,0.00,Wunderground v.1.15,2013-01-31 20:20:00,
2013-01-31 11:30:00,18.4,15.4,29.64,WNW,297,11.0,12.0,88,0.00,,,0.00,Wunderground v.1.15,2013-01-31 20:30:00,
2013-01-31 11:35:00,18.4,15.4,29.64,West,276,10.0,12.0,88,0.00,,,0.00,Wunderground v.1.15,2013-01-31 20:35:00,
2013-01-31 11:45:00,18.3,15.1,29.65,NW,304,10.0,12.0,87,0.00,,,0.00,Wunderground v.1.15,2013-01-31 20:45:00,
2013-01-31 11:50:00,18.3,15.1,29.65,NW,304,10.0,11.0,87,0.00,,,0.00,Wunderground v.1.15,2013-01-31 20:50:00,
2013-01-31 12:00:00,18.3,15.1,29.66,WNW,299,7.0,7.0,87,0.00,,,0.00,Wunderground v.1.15,2013-01-31 21:00:00,
2013-01-31 12:05:00,18.3,14.8,29.66,NW,318,8.0,8.0,86,0.00,,,0.00,Wunderground v.1.15,2013-01-31 21:05:00,
2013-01-31 12:15:00,18.4,14.9,29.67,NW,313,7.0,8.0,86,0.00,,,0.00,Wunderground v.1.15,2013-01-31 21:15:00,
2013-01-31 12:25:00,18.4,14.9,29.67,NW,314,7.0,11.0,86,0.00,,,0.00,Wunderground v.1.15,2013-01-31 21:25:00,
2013-01-31 12:35:00,18.4,14.9,29.67,WNW,284,8.0,15.0,86,0.00,,,0.00,Wunderground v.1.15,2013-01-31 21:35:00,
2013-01-31 12:40:00,18.4,14.9,29.67,NW,307,14.0,14.0,86,0.00,,,0.00,Wunderground v.1.15,2013-01-31 21:40:00,
2013-01-31 12:45:00,18.3,14.5,29.68,NW,306,11.0,14.0,85,0.00,,,0.00,Wunderground v.1.15,2013-01-31 21:45:00,
2013-01-31 12:55:00,18.0,14.3,29.68,NW,311,9.0,13.0,85,0.00,,,0.00,Wunderground v.1.15,2013-01-31 21:55:00,
2013-01-31 13:05:00,17.7,14.0,29.68,NW,318,10.0,12.0,85,0.00,,,0.00,Wunderground v.1.15,2013-01-31 22:05:00,
2013-01-31 13:15:00,17.2,13.5,29.69,NNW,327,5.0,7.0,85,0.00,,,0.00,Wunderground v.1.15,2013-01-31 22:15:00,
2013-01-31 13:20:00,17.2,13.5,29.69,ENE,63,4.0,4.0,85,0.00,,,0.00,Wunderground v.1.15,2013-01-31 22:20:00,
2013-01-31 13:30:00,17.0,13.3,29.70,NNE,16,5.0,7.0,85,0.00,,,0.00,Wunderground v.1.15,2013-01-31 22:30:00,
2013-01-31 13:35:00,16.9,13.2,29.70,North,354,7.0,7.0,85,0.00,,,0.00,Wunderground v.1.15,2013-01-31 22:35:00,
2013-01-31 13:40:00,17.3,13.8,29.70,ENE,61,3.0,3.0,86,0.00,,,0.00,Wunderground v.1.15,2013-01-31 22:40:00,
2013-01-31 13:50:00,17.8,14.1,29.71,East,91,3.0,3.0,85,0.00,,,0.00,Wunderground v.1.15,2013-01-31 22:50:00,
2013-01-31 13:55:00,19.1,15.1,29.71,ESE,102,2.0,3.0,84,0.00,,,0.00,Wunderground v.1.15,2013-01-31 22:55:00,
2013-01-31 14:00:00,19.4,15.1,29.72,SE,133,1.0,1.0,83,0.00,,,0.00,Wunderground v.1.15,2013-01-31 23:00:00,
2013-01-31 14:10:00,18.9,14.9,29.72,WSW,244,1.0,1.0,84,0.00,,,0.00,Wunderground v.1.15,2013-01-31 23:10:00,
2013-01-31 14:20:00,18.1,14.4,29.72,SW,214,2.0,6.0,85,0.00,,,0.00,Wunderground v.1.15,2013-01-31 23:20:00,
2013-01-31 14:25:00,17.8,14.3,29.72,WSW,255,2.0,6.0,86,0.00,,,0.00,Wunderground v.1.15,2013-01-31 23:25:00,
2013-01-31 14:35:00,17.3,14.1,29.73,WNW,296,5.0,6.0,87,0.00,,,0.00,Wunderground v.1.15,2013-01-31 23:35:00,
2013-01-31 14:45:00,16.9,13.7,29.73,NW,308,7.0,7.0,87,0.00,,,0.00,Wunderground v.1.15,2013-01-31 23:45:00,
2013-01-31 14:50:00,16.4,12.9,29.73,NW,320,8.0,9.0,86,0.00,,,0.00,Wunderground v.1.15,2013-01-31 23:50:00,
2013-01-31 15:00:00,15.4,11.7,29.74,NW,325,11.0,11.0,85,0.00,,,0.00,Wunderground v.1.15,2013-02-01 00:00:00,
2013-01-31 15:10:00,15.6,12.2,29.74,NNW,342,11.0,13.0,86,0.00,,,0.00,Wunderground v.1.15,2013-02-01 00:10:00,
2013-01-31 15:15:00,15.7,12.0,29.75,NNW,328,10.0,13.0,85,0.00,,,0.00,Wunderground v.1.15,2013-02-01 00:15:00,
2013-01-31 15:20:00,15.2,11.5,29.75,NW,323,10.0,10.0,85,0.00,,,0.00,Wunderground v.1.15,2013-02-01 00:20:00,
2013-01-31 15:30:00,15.9,11.9,29.76,North,11,8.0,11.0,84,0.00,,,0.00,Wunderground v.1.15,2013-02-01 00:30:00,
2013-01-31 15:35:00,16.1,12.1,29.76,NNE,22,8.0,11.0,84,0.00,,,0.00,Wunderground v.1.15,2013-02-01 00:35:00,
2013-01-31 15:45:00,16.1,12.1,29.76,NNE,18,7.0,8.0,84,0.00,,,0.00,Wunderground v.1.15,2013-02-01 00:45:00,
2013-01-31 15:50:00,16.2,12.2,29.76,North,354,10.0,13.0,84,0.00,,,0.00,Wunderground v.1.15,2013-02-01 00:50:00,
2013-01-31 16:00:00,16.4,12.4,29.77,NNW,347,9.0,9.0,84,0.00,,,0.00,Wunderground v.1.15,2013-02-01 01:00:00,
2013-01-31 16:05:00,16.7,12.4,29.77,NNW,345,8.0,9.0,83,0.00,,,0.00,Wunderground v.1.15,2013-02-01 01:05:00,
2013-01-31 16:10:00,16.2,11.9,29.77,NNE,16,7.0,9.0,83,0.00,,,0.00,Wunderground v.1.15,2013-02-01 01:10:00,
2013-01-31 16:20:00,16.1,11.3,29.77,North,351,5.0,5.0,81,0.00,,,0.00,Wunderground v.1.15,2013-02-01 01:20:00,
2013-01-31 16:25:00,15.9,11.4,29.77,North,1,6.0,10.0,82,0.00,,,0.00,Wunderground v.1.15,2013-02-01 01:25:00,
2013-01-31 16:35:00,14.0,9.5,29.79,NW,320,6.0,8.0,82,0.00,,,0.00,Wunderground v.1.15,2013-02-01 01:35:00,
2013-01-31 16:40:00,13.5,9.6,29.79,NNW,340,9.0,9.0,84,0.00,,,0.00,Wunderground v.1.15,2013-02-01 01:40:00,
2013-01-31 16:50:00,12.8,8.3,29.79,NNW,342,11.0,11.0,82,0.00,,,0.00,Wunderground v.1.15,2013-02-01 01:50:00,
2013-01-31 17:00:00,12.4,8.2,29.79,NNW,338,10.0,10.0,83,0.00,,,0.00,Wunderground v.1.15,2013-02-01 02:00:00,
2013-01-31 17:05:00,12.1,7.9,29.79,NNW,345,9.0,10.0,83,0.00,,,0.00,Wunderground v.1.15,2013-02-01 02:05:00,
2013-01-31 17:10:00,12.4,8.2,29.79,NNW,344,10.0,11.0,83,0.00,,,0.00,Wunderground v.1.15,2013-02-01 02:10:00,
2013-01-31 17:20:00,12.3,8.1,29.79,North,355,5.0,5.0,83,0.00,,,0.00,Wunderground v.1.15,2013-02-01 02:20:00,
2013-01-31 17:30:00,11.9,7.5,29.80,North,355,4.0,4.0,82,0.00,,,0.00,Wunderground v.1.15,2013-02-01 02:30:00,
2013-01-31 17:35:00,12.1,7.7,29.80,North,355,2.0,5.0,82,0.00,,,0.00,Wunderground v.1.15,2013-02-01 02:35:00,
2013-01-31 17:45:00,11.9,7.5,29.81,North,5,3.0,3.0,82,0.00,,,0.00,Wunderground v.1.15,2013-02-01 02:45:00,
2013-01-31 17:50:00,11.2,6.5,29.81,North,4,3.0,3.0,81,0.00,,,0.00,Wunderground v.1.15,2013-02-01 02:50:00,
2013-01-31 18:00:00,9.9,5.2,29.81,North,5,3.0,3.0,81,0.00,,,0.00,Wunderground v.1.15,2013-02-01 03:00:00,
2013-01-31 18:10:00,9.3,4.6,29.81,North,352,5.0,5.0,81,0.00,,,0.00,Wunderground v.1.15,2013-02-01 03:10:00,
2013-01-31 18:20:00,8.8,4.2,29.83,North,352,2.0,2.0,81,0.00,,,0.00,Wunderground v.1.15,2013-02-01 03:20:00,
2013-01-31 18:25:00,7.2,2.6,29.83,North,352,0.0,2.0,81,0.00,,,0.00,Wunderground v.1.15,2013-02-01 03:25:00,
2013-01-31 18:35:00,7.7,3.6,29.83,North,351,1.0,1.0,83,0.00,,,0.00,Wunderground v.1.15,2013-02-01 03:35:00,
2013-01-31 18:45:00,6.9,2.0,29.84,North,351,1.0,1.0,80,0.00,,,0.00,Wunderground v.1.15,2013-02-01 03:45:00,
2013-01-31 18:50:00,6.1,1.5,29.84,North,351,1.0,1.0,81,0.00,,,0.00,Wunderground v.1.15,2013-02-01 03:50:00,
2013-01-31 18:55:00,4.8,-0.3,29.84,North,352,1.0,2.0,79,0.00,,,0.00,Wunderground v.1.15,2013-02-01 03:55:00,
2013-01-31 19:05:00,3.0,-1.5,29.85,NNW,348,1.0,1.0,81,0.00,,,0.00,Wunderground v.1.15,2013-02-01 04:05:00,
2013-01-31 19:10:00,3.2,-1.1,29.85,North,351,1.0,1.0,82,0.00,,,0.00,Wunderground v.1.15,2013-02-01 04:10:00,
2013-01-31 19:20:00,4.3,0.5,29.86,SSE,156,2.0,2.0,84,0.00,,,0.00,Wunderground v.1.15,2013-02-01 04:20:00,
2013-01-31 19:25:00,4.8,1.0,29.86,SSE,156,4.0,6.0,84,0.00,,,0.00,Wunderground v.1.15,2013-02-01 04:25:00,
2013-01-31 19:35:00,6.5,3.0,29.87,SSE,155,1.0,4.0,85,0.00,,,0.00,Wunderground v.1.15,2013-02-01 04:35:00,
2013-01-31 19:40:00,6.9,3.3,29.87,SSE,155,1.0,1.0,85,0.00,,,0.00,Wunderground v.1.15,2013-02-01 04:40:00,
2013-01-31 19:45:00,6.9,2.8,29.88,SSE,156,0.0,1.0,83,0.00,,,0.00,Wunderground v.1.15,2013-02-01 04:45:00,
2013-01-31 19:55:00,6.0,1.9,29.88,SSE,156,1.0,2.0,83,0.00,,,0.00,Wunderground v.1.15,2013-02-01 04:55:00,
2013-01-31 20:00:00,5.8,1.8,29.89,SSE,156,1.0,1.0,83,0.00,,,0.00,Wunderground v.1.15,2013-02-01 05:00:00,
2013-01-31 20:05:00,6.0,2.2,29.89,SSE,156,1.0,2.0,84,0.00,,,0.00,Wunderground v.1.15,2013-02-01 05:05:00,
2013-01-31 20:10:00,6.5,2.7,29.89,SSE,159,2.0,2.0,84,0.00,,,0.00,Wunderground v.1.15,2013-02-01 05:10:00,
2013-01-31 20:15:00,7.0,3.2,29.90,SSE,157,1.0,2.0,84,0.00,,,0.00,Wunderground v.1.15,2013-02-01 05:15:00,
2013-01-31 20:20:00,7.7,3.9,29.90,SSE,155,1.0,1.0,84,0.00,,,0.00,Wunderground v.1.15,2013-02-01 05:20:00,
2013-01-31 20:30:00,8.6,4.2,29.90,NE,43,3.0,3.0,82,0.00,,,0.00,Wunderground v.1.15,2013-02-01 05:30:00,
2013-01-31 20:40:00,8.6,3.1,29.90,NNE,19,4.0,5.0,78,0.00,,,0.00,Wunderground v.1.15,2013-02-01 05:40:00,
2013-01-31 20:45:00,8.4,2.9,29.90,NNE,19,4.0,6.0,78,0.00,,,0.00,Wunderground v.1.15,2013-02-01 05:45:00,
2013-01-31 20:50:00,7.4,2.0,29.90,NNE,19,5.0,5.0,78,0.00,,,0.00,Wunderground v.1.15,2013-02-01 05:50:00,
2013-01-31 21:00:00,7.7,3.1,29.90,NNE,16,3.0,3.0,81,0.00,,,0.00,Wunderground v.1.15,2013-02-01 06:00:00,
2013-01-31 21:05:00,8.1,2.7,29.90,North,354,3.0,3.0,78,0.00,,,0.00,Wunderground v.1.15,2013-02-01 06:05:00,
2013-01-31 21:15:00,5.6,0.2,29.90,North,355,1.0,2.0,78,0.00,,,0.00,Wunderground v.1.15,2013-02-01 06:15:00,
2013-01-31 21:20:00,4.8,-0.6,29.90,North,355,1.0,1.0,78,0.00,,,0.00,Wunderground v.1.15,2013-02-01 06:20:00,
2013-01-31 21:30:00,1.5,-4.3,29.91,NNE,15,1.0,1.0,76,0.00,,,0.00,Wunderground v.1.15,2013-02-01 06:30:00,
2013-01-31 21:35:00,0.1,-5.1,29.91,NNE,15,1.0,1.0,78,0.00,,,0.00,Wunderground v.1.15,2013-02-01 06:35:00,
2013-01-31 21:40:00,-0.2,-4.9,29.91,NNE,13,0.0,2.0,80,0.00,,,0.00,Wunderground v.1.15,2013-02-01 06:40:00,
2013-01-31 21:50:00,1.3,-2.4,29.91,NNE,13,0.0,0.0,84,0.00,,,0.00,Wunderground v.1.15,2013-02-01 06:50:00,
2013-01-31 21:55:00,2.0,-2.0,29.91,NNE,13,0.0,1.0,83,0.00,,,0.00,Wunderground v.1.15,2013-02-01 06:55:00,
2013-01-31 22:05:00,2.8,-2.5,29.92,East,90,2.0,3.0,78,0.00,,,0.00,Wunderground v.1.15,2013-02-01 07:05:00,
2013-01-31 22:15:00,0.3,-4.4,29.93,ESE,122,1.0,2.0,80,0.00,,,0.00,Wunderground v.1.15,2013-02-01 07:15:00,
2013-01-31 22:20:00,2.6,-2.4,29.93,East,97,1.0,1.0,79,0.00,,,0.00,Wunderground v.1.15,2013-02-01 07:20:00,
2013-01-31 22:30:00,0.0,-5.2,29.94,East,97,0.0,0.0,78,0.00,,,0.00,Wunderground v.1.15,2013-02-01 07:30:00,
2013-01-31 22:35:00,-0.8,-6.0,29.94,East,97,0.0,0.0,78,0.00,,,0.00,Wunderground v.1.15,2013-02-01 07:35:00,
2013-01-31 22:40:00,-2.2,-7.6,29.94,East,97,1.0,3.0,77,0.00,,,0.00,Wunderground v.1.15,2013-02-01 07:40:00,
2013-01-31 22:50:00,-0.8,-5.2,29.94,East,97,2.0,2.0,81,0.00,,,0.00,Wunderground v.1.15,2013-02-01 07:50:00,
2013-01-31 22:55:00,-0.4,-4.8,29.94,East,97,1.0,2.0,81,0.00,,,0.00,Wunderground v.1.15,2013-02-01 07:55:00,
2013-01-31 23:05:00,-0.4,-4.8,29.95,East,97,0.0,0.0,81,0.00,,,0.00,Wunderground v.1.15,2013-02-01 08:05:00,
2013-01-31 23:10:00,-0.8,-5.7,29.95,East,97,0.0,2.0,79,0.00,,,0.00,Wunderground v.1.15,2013-02-01 08:10:00,
2013-01-31 23:20:00,-1.0,-5.7,29.95,East,97,0.0,0.0,80,0.00,,,0.00,Wunderground v.1.15,2013-02-01 08:20:00,
2013-01-31 23:30:00,-2.4,-7.3,29.96,East,97,0.0,0.0,79,0.00,,,0.00,Wunderground v.1.15,2013-02-01 08:30:00,
2013-01-31 23:35:00,-3.1,-8.0,29.96,East,97,1.0,2.0,79,0.00,,,0.00,Wunderground v.1.15,2013-02-01 08:35:00,
2013-01-31 23:45:00,-4.1,-8.7,29.97,East,94,1.0,2.0,80,0.00,,,0.00,Wunderground v.1.15,2013-02-01 08:45:00,
2013-01-31 23:55:00,-4.3,-8.9,29.97,NE,56,2.0,4.0,80,0.00,,,0.00,Wunderground v.1.15,2013-02-01 08:55:00,